Weather History for Blair, NE

Change the Weather History Date:

Thursday, February 14, 2013

  Actual Average (KOMA) Record (KOMA)
Temperature  
Mean Temperature 32 °F 28 °F  
Max Temperature 43 °F 38 °F 72 °F (1967)
Min Temperature 21 °F 18 °F -18 °F (1936)
Degree Days  
Heating Degree Days 32 37  
Month to date heating degree days 546  
Since 1 July heating degree days 4311  
Cooling Degree Days 0 0  
Month to date cooling degree days 0  
Year to date cooling degree days 0  
Moisture  
Dew Point 27 °F    
Average Humidity 72    
Maximum Humidity 93    
Minimum Humidity 45    
Precipitation  
Precipitation 0.00 in 0.03 in 0.62 in (1969)
Month to date precipitation 0.38  
Year to date precipitation 1.10  
Snow  
Snow 0.00 in 0.20 in - ()
Month to date snowfall 3.2  
Since 1 July snowfall 18.3  
Snow Depth -    
Sea Level Pressure  
Sea Level Pressure 29.99 in    
Wind  
Wind Speed 11 mph (NW)    
Max Wind Speed 25 mph    
Max Gust Speed 33 mph    
Visibility 9 miles    
Events Snow    
T = Trace of Precipitation, MM = Missing Value Source: NWS Daily Summary

Daily Weather History Graph

Daily Weather History Graph

Search for Another Location

Airport:

Trip Planner

Search our weather history database for the weather conditions in past years. The results will help you decide how hot, cold, wet, or windy it might be!

Date:

Astronomy

Feb. 14, 2013 Rise Set
Actual Time 7:20 AM CST 5:57 PM CST
Civil Twilight 6:51 AM CST 6:25 PM CST
Nautical Twilight 6:19 AM CST 6:58 PM CST
Astronomical Twilight 5:47 AM CST 7:30 PM CST
Moon 9:19 AM CST (2/14) 11:05 PM CST (2/14)
Length of Visible Light 11h 33m
Length of Day
10h 37m
Waxing Crescent, 22% of the Moon is Illuminated
Feb 14
Waxing Crescent
Feb 17
First Quarter
Feb 25
Full
Mar 4
Last Quarter
Mar 11
New

Hourly Weather History & Observations

Time (CST) Temp. Windchill Dew Point Humidity Pressure Visibility Wind Dir Wind Speed Gust Speed Precip Events Conditions
12:15 AM 39.2 °F 34.2 °F 29.3 °F 68% 29.78 in 10.0 mi West 6.9 mph - N/A   Scattered Clouds
12:35 AM 38.8 °F 33.8 °F 29.7 °F 70% 29.78 in 10.0 mi West 6.9 mph - N/A   Clear
12:55 AM 38.7 °F 33.6 °F 29.8 °F 71% 29.79 in 10.0 mi WNW 6.9 mph - N/A   Clear
1:15 AM 38.7 °F 33.6 °F 30.2 °F 72% 29.80 in 10.0 mi WNW 6.9 mph - N/A   Clear
1:35 AM 38.7 °F 32.9 °F 30.2 °F 72% 29.80 in 10.0 mi WNW 8.1 mph - N/A   Clear
1:55 AM 38.3 °F 33.2 °F 30.2 °F 73% 29.81 in 10.0 mi WNW 6.9 mph - N/A   Clear
2:15 AM 38.3 °F 30.9 °F 30.4 °F 73% 29.81 in 10.0 mi WNW 11.5 mph - N/A   Scattered Clouds
2:35 AM 38.8 °F 31.6 °F 30.6 °F 72% 29.82 in 10.0 mi WNW 11.5 mph 17.3 mph N/A   Clear
2:55 AM 39.0 °F 31.8 °F 30.7 °F 72% 29.83 in 10.0 mi WNW 11.5 mph - N/A   Clear
3:15 AM 37.6 °F 31.0 °F 30.2 °F 75% 29.84 in 10.0 mi WNW 9.2 mph - N/A   Clear
3:35 AM 37.4 °F 30.8 °F 30.2 °F 75% 29.84 in 10.0 mi NW 9.2 mph - N/A   Clear
3:55 AM 36.7 °F 29.9 °F 30.2 °F 77% 29.84 in 10.0 mi WNW 9.2 mph - N/A   Clear
4:15 AM 35.6 °F 28.6 °F 29.8 °F 80% 29.84 in 10.0 mi WNW 9.2 mph - N/A   Clear
4:35 AM 36.7 °F 27.2 °F 30.0 °F 77% 29.85 in 10.0 mi NW 16.1 mph 24.2 mph N/A   Clear
4:55 AM 36.7 °F 29.9 °F 30.2 °F 77% 29.87 in 10.0 mi WNW 9.2 mph 18.4 mph N/A   Scattered Clouds
5:15 AM 35.4 °F 26.0 °F 30.2 °F 81% 29.86 in 10.0 mi NW 15.0 mph 18.4 mph N/A   Scattered Clouds
5:35 AM 34.9 °F 27.1 °F 29.7 °F 81% 29.87 in 10.0 mi WNW 10.4 mph - N/A   Clear
5:55 AM 33.8 °F 27.0 °F 29.7 °F 85% 29.88 in 10.0 mi WNW 8.1 mph - N/A   Clear
6:15 AM 33.3 °F 26.4 °F 29.3 °F 85% 29.89 in 10.0 mi WNW 8.1 mph - N/A   Clear
6:35 AM 32.5 °F 26.2 °F 28.8 °F 86% 29.90 in 10.0 mi WNW 6.9 mph - N/A   Clear
6:55 AM 32.9 °F 25.9 °F 29.3 °F 87% 29.91 in 10.0 mi WNW 8.1 mph - N/A   Mostly Cloudy
7:15 AM 33.4 °F 26.6 °F 29.7 °F 86% 29.93 in 10.0 mi NW 8.1 mph - N/A   Overcast
7:35 AM 33.8 °F 28.6 °F 29.7 °F 85% 29.94 in 10.0 mi WNW 5.8 mph - N/A   Mostly Cloudy
7:55 AM 33.1 °F 27.7 °F 29.3 °F 86% 29.94 in 10.0 mi WNW 5.8 mph - N/A   Mostly Cloudy
8:15 AM 33.4 °F 28.1 °F 29.8 °F 87% 29.94 in 10.0 mi WNW 5.8 mph - N/A   Scattered Clouds
8:35 AM 33.4 °F 28.1 °F 29.7 °F 86% 29.94 in 10.0 mi WNW 5.8 mph - N/A   Scattered Clouds
8:55 AM 34.2 °F 31.2 °F 30.2 °F 85% 29.95 in 10.0 mi West 3.5 mph - N/A   Clear
9:15 AM 35.8 °F 30.1 °F 30.7 °F 82% 29.95 in 10.0 mi West 6.9 mph - N/A   Clear
9:35 AM 36.7 °F 28.9 °F 31.6 °F 82% 29.96 in 10.0 mi WSW 11.5 mph - N/A   Mostly Cloudy
9:55 AM 37.6 °F 31.0 °F 31.3 °F 78% 29.96 in 10.0 mi West 9.2 mph - N/A   Scattered Clouds
10:15 AM 39.0 °F 31.4 °F 31.3 °F 74% 29.96 in 10.0 mi WNW 12.7 mph 19.6 mph N/A   Clear
10:35 AM 39.6 °F 32.1 °F 30.2 °F 69% 29.97 in 10.0 mi WNW 12.7 mph 20.7 mph N/A   Clear
10:55 AM 41.0 °F 33.1 °F 29.3 °F 63% 29.97 in 10.0 mi NW 15.0 mph 24.2 mph N/A   Scattered Clouds
11:15 AM 41.2 °F 33.0 °F 28.6 °F 61% 29.97 in 10.0 mi NW 16.1 mph 21.9 mph N/A   Scattered Clouds
11:35 AM 42.1 °F 33.1 °F 26.4 °F 54% 29.98 in 10.0 mi NW 20.7 mph 25.3 mph N/A   Scattered Clouds
11:55 AM 43.9 °F 35.7 °F 25.2 °F 48% 29.98 in 10.0 mi NW 19.6 mph 26.5 mph N/A   Mostly Cloudy
12:15 PM 43.7 °F 35.7 °F 23.9 °F 46% 29.98 in 10.0 mi NW 18.4 mph 27.6 mph N/A   Mostly Cloudy
12:35 PM 42.8 °F 35.1 °F 23.9 °F 47% 29.98 in 10.0 mi NW 16.1 mph 31.1 mph N/A   Scattered Clouds
12:55 PM 43.0 °F 35.4 °F 23.9 °F 47% 29.98 in 10.0 mi WNW 16.1 mph 26.5 mph N/A   Mostly Cloudy
1:15 PM 43.0 °F 35.4 °F 23.0 °F 45% 29.98 in 10.0 mi WNW 16.1 mph 25.3 mph N/A   Overcast
1:35 PM 42.1 °F 33.6 °F 22.5 °F 46% 29.99 in 10.0 mi NW 18.4 mph 23.0 mph N/A   Overcast
1:55 PM 42.3 °F 33.8 °F 22.3 °F 45% 30.00 in 10.0 mi NW 18.4 mph 26.5 mph N/A   Overcast
2:15 PM 42.1 °F 34.2 °F 22.6 °F 46% 30.00 in 10.0 mi WNW 16.1 mph 24.2 mph N/A   Overcast
2:35 PM 42.1 °F 34.5 °F 23.5 °F 48% 30.01 in 10.0 mi NW 15.0 mph 24.2 mph N/A   Overcast
2:55 PM 41.5 °F 33.5 °F 23.5 °F 49% 30.01 in 10.0 mi NW 16.1 mph 26.5 mph N/A   Overcast
3:15 PM 41.9 °F 34.6 °F 23.5 °F 48% 30.02 in 10.0 mi WNW 13.8 mph 20.7 mph N/A   Overcast
3:35 PM 41.2 °F 35.0 °F 24.6 °F 52% 30.02 in 10.0 mi NW 10.4 mph - N/A   Overcast
3:55 PM 41.4 °F 33.6 °F 24.1 °F 50% 30.03 in 10.0 mi WNW 15.0 mph 21.9 mph N/A   Overcast
4:15 PM 40.6 °F 32.3 °F 25.0 °F 54% 30.04 in 10.0 mi NW 16.1 mph 21.9 mph N/A   Overcast
4:35 PM 37.6 °F 28.4 °F 29.1 °F 72% 30.06 in 5.0 mi WNW 16.1 mph 21.9 mph N/A Snow Light Snow
4:55 PM 35.6 °F 27.1 °F 31.3 °F 84% 30.06 in 10.0 mi NW 12.7 mph 17.3 mph N/A   Mostly Cloudy
5:15 PM 35.8 °F 28.3 °F 31.1 °F 83% 30.06 in 10.0 mi NW 10.4 mph - N/A   Mostly Cloudy
5:35 PM 34.3 °F 25.5 °F 31.1 °F 88% 30.08 in 0.8 mi WNW 12.7 mph 25.3 mph N/A Snow Light Snow
5:55 PM 34.0 °F 24.6 °F 32.0 °F 92% 30.08 in 1.2 mi WNW 13.8 mph 19.6 mph N/A Snow Light Snow
6:15 PM 33.8 °F 26.4 °F 32.0 °F 93% 30.08 in 2.5 mi NW 9.2 mph - N/A Snow Light Snow
6:35 PM 33.8 °F 25.3 °F 31.6 °F 92% 30.08 in 10.0 mi NW 11.5 mph - N/A Snow Light Snow
6:55 PM 34.0 °F 26.0 °F 31.3 °F 90% 30.09 in 7.0 mi NW 10.4 mph - N/A Snow Light Snow
7:15 PM 33.8 °F 26.4 °F 31.6 °F 92% 30.10 in 5.0 mi NW 9.2 mph - N/A Snow Light Snow
7:35 PM 32.2 °F 21.4 °F 30.2 °F 92% 30.11 in 2.5 mi North 16.1 mph - N/A Snow Light Snow
7:55 PM 31.6 °F 18.1 °F 28.9 °F 90% 30.12 in 1.2 mi North 25.3 mph 33.4 mph N/A Snow Light Snow
8:15 PM 31.1 °F 18.3 °F 27.5 °F 87% 30.14 in 10.0 mi North 21.9 mph 27.6 mph N/A Snow Light Snow
8:35 PM 30.2 °F 17.1 °F 23.5 °F 76% 30.16 in 10.0 mi North 21.9 mph 29.9 mph N/A   Overcast
8:55 PM 29.3 °F 16.6 °F 19.8 °F 68% 30.17 in 10.0 mi North 19.6 mph 33.4 mph N/A   Overcast
9:15 PM 28.4 °F 15.4 °F 18.0 °F 65% 30.19 in 10.0 mi North 19.6 mph 29.9 mph N/A   Overcast
9:35 PM 28.0 °F 14.9 °F 16.0 °F 61% 30.20 in 10.0 mi NNW 19.6 mph 26.5 mph N/A   Overcast
9:55 PM 27.1 °F 16.9 °F 15.8 °F 62% 30.21 in 10.0 mi NNW 11.5 mph - N/A   Overcast
10:15 PM 26.6 °F 13.8 °F 14.5 °F 60% 30.22 in 10.0 mi NNW 17.3 mph 26.5 mph N/A   Mostly Cloudy
10:35 PM 25.5 °F 12.0 °F 16.2 °F 68% 30.23 in 10.0 mi NW 18.4 mph 21.9 mph N/A   Scattered Clouds
10:55 PM 24.8 °F 11.5 °F 15.6 °F 68% 30.24 in 10.0 mi NW 17.3 mph 23.0 mph N/A   Scattered Clouds
11:15 PM 23.9 °F 11.2 °F 17.6 °F 77% 30.25 in 10.0 mi NW 15.0 mph 18.4 mph N/A   Scattered Clouds
11:35 PM 22.3 °F 10.8 °F 16.5 °F 79% 30.25 in 10.0 mi NW 11.5 mph 20.7 mph N/A   Clear
11:55 PM 21.0 °F 8.1 °F 14.9 °F 77% 30.26 in 10.0 mi NNW 13.8 mph - N/A   Clear